Location: Bern�tre
(50.1974°N, 2.0915°E)
Time: 15:09:12
(UTC+00:00)

ATLAS 2AS CENTAUR R/B - Pass Details

Date: 18 September 2020
Orbit: 939 x 1273 km, 63.7° (Epoch: 19 October)

Event Time Altitude Azimuth Distance (km) Brightness Sun altitude
Rises 21:01:42 0° 206° (SSW) 4,194 5.7 -27.7°
Reaches altitude 10° 21:04:29 10° 204° (SSW) 3,246 5.0 -28.0°
Enters shadow 21:04:48 11° 203° (SSW) 3,144 4.9 -28.0°
Exits shadow 21:11:56 64° 139° (SE) 1,391 2.9 -28.8°
Maximum altitude 21:12:18 65° 125° (SE) 1,384 2.9 -28.9°
Drops below altitude 10° 21:20:04 10° 46° (NE) 3,225 5.2 -29.8°
Sets 21:22:50 0° 44° (NE) 4,165 5.8 -30.1°
